Location: Gwatt
(46.7204°N, 7.6223°E)
Time: 01:48:29
(UTC+00:00)

Transit 2A - Pass Details

Date: 25 January 2021
Orbit: 601 x 958 km, 66.7° (Epoch: 07 March)

Event Time Altitude Azimuth Distance (km) Brightness Sun altitude
Rises 01:51:38 0° 171° (S) 3,514 - -51.6°
Reaches altitude 10° 01:54:46 10° 156° (SSE) 2,525 - -51.1°
Maximum altitude 01:59:02 21° 109° (ESE) 1,780 - -50.5°
Drops below altitude 10° 02:03:03 10° 61° (ENE) 2,364 - -49.9°
Exits shadow 02:04:36 - 52° (NE) 2,814 9.5 -49.7°
Sets 02:05:52 0° 46° (NE) 3,229 9.9 -49.5°
